ARIANE 5 R/B, 41795

Orbit data source: Space-Track

ARIANE 5 R/B, 41795 is space debris in HEO originally from a launch on Wed, 05 Oct 2016 UTC launched from the French Guiana (FRGUI). Debris objects in space refer to the collection of defunct objects orbiting the Earth. Examples of debris include non-operational satellites, rocket bodies, and fragments generated from explosions, collisions, or faulty payload assembly.

Loading next visibility...
Identifier
41795, 2016-060C
Orbit
HEO
Country
Flag of FRFR
Related business
Manufacturer
Airbus Safran
Mission
Spacecraft
Bus & Motor
ESC-A, Unknown motor
Mass
~5,000 kg wet, ~5,000 kg dry
Launch date (UTC)
2016-10-05 (9 years ago)
Launch vehicle
Unknown
Launch site
French Guiana (FRGUI)
Object type
Payload
Rocket body
Debris
Shape & HBR
Cyl + 1 Nozzle, 3.5 m
Radar Cross Section
41.627 m², Large (>1 m²)

Expand to show TLE details & history
Last TLE update: 2 days ago

TLE from 2 days ago
0 ARIANE 5 R/B
1 41795U 16060C   25308.78431069  .00011526  00000-0  13485-2 0  9993
2 41795   5.9425  69.9725 6935518 300.0312   9.3194  2.74566003 81500
Epoch: 2025-11-04T18:49Z
TLE epoch observation values (Epoch: 2025-11-04T18:49:24.443Z)
Latitude
-0.00024°
Longitude
103.3435°
Altitude
1,903.696 km
Speed
8.817 km/s
True Right ascension
04h 39m 50s
True Declination
0° 00' 01"
Sunlit
Object was in full shadow at epoch
Visualization orbit readout
Latitude
Unknown
Longitude
Unknown
Altitude
Unknown
Speed
Unknown
Apparent Right ascension
Unknown
Apparent Declination
Unknown
Sunlit
N/A
Visualization observer readout
Local Sidereal Time
18:58:05
Azimuth
Unknown
Elevation
Unknown
Doppler factor
Unknown
Orbital elements
Apogee altitude
30,115.002 km
Perigee altitude
225.296 km
Semi-major axis
21,548.286 km
Eccentricity
0.69355
Inclination
5.9425°
RAAN
69.9725°
Arg. of periapsis
300.0312°
True anomaly
60.6318°
Mean anomaly
9.3194°
Eccentric anomaly
27.93565°
Mean motion
0.68616 °/min
Orbital period
524.66 mins
BSTAR
0.0013485
Loading maneuver chart data...
Computing Atmospheric mass density...
Loading historical data...
Loading historical data...
Loading historical data...
Loading historical data...
Loading historical data...
Loading historical data...
Loading historical data...
Other satellites on launch #60 in the year 2016 (2016-10-05 UTC)

Documentation

Showing up to 5 results
|